Total_Precipitation_Accumulation
0.57 0.61 0.65 0.64 0.66 0.70 0.78 0.93 1.06 0.94 0.70 0.55 0.52 0.50 0.50 0.49 0.51 0.48 0.42 0.46 0.45 0.44 0.45 0.46 0.47 0.50 0.53 0.59 0.66 0.74 0.81 0.87 0.92 0.99 1.07 1.18 1.32 1.47
0.41 0.46 0.50 0.52 0.56 0.61 0.67 0.74 0.89 0.99 0.83 0.57 0.49 0.47 0.48 0.45 0.46 0.42 0.38 0.43 0.41 0.41 0.41 0.41 0.41 0.41 0.43 0.47 0.52 0.57 0.61 0.66 0.75 0.85 0.97 1.07 1.18 1.33
0.30 0.36 0.40 0.44 0.48 0.50 0.54 0.59 0.66 0.77 0.78 0.57 0.47 0.44 0.43 0.38 0.36 0.34 0.31 0.30 0.29 0.33 0.36 0.37 0.40 0.41 0.42 0.43 0.44 0.47 0.50 0.54 0.63 0.73 0.85 0.95 1.04 1.09
0.23 0.26 0.29 0.33 0.39 0.44 0.48 0.50 0.51 0.55 0.63 0.56 0.41 0.36 0.33 0.29 0.27 0.26 0.25 0.25 0.23 0.26 0.31 0.36 0.40 0.42 0.41 0.40 0.39 0.41 0.43 0.46 0.50 0.55 0.62 0.71 0.82 0.92
0.22 0.27 0.31 0.35 0.40 0.42 0.45 0.46 0.46 0.48 0.55 0.58 0.41 0.32 0.29 0.25 0.24 0.21 0.21 0.22 0.20 0.21 0.25 0.28 0.30 0.33 0.36 0.38 0.38 0.38 0.39 0.40 0.42 0.46 0.50 0.55 0.62 0.72
0.26 0.30 0.32 0.34 0.34 0.34 0.35 0.36 0.40 0.42 0.43 0.47 0.43 0.33 0.29 0.23 0.23 0.21 0.20 0.19 0.20 0.22 0.24 0.26 0.28 0.30 0.31 0.31 0.31 0.31 0.31 0.35 0.42 0.51 0.58 0.62 0.64 0.66
0.33 0.32 0.30 0.29 0.26 0.25 0.27 0.29 0.31 0.35 0.42 0.49 0.47 0.37 0.29 0.25 0.22 0.23 0.28 0.26 0.25 0.23 0.24 0.24 0.28 0.32 0.35 0.38 0.40 0.39 0.40 0.45 0.55 0.66 0.73 0.78 0.79 0.79
0.30 0.27 0.24 0.22 0.19 0.19 0.21 0.22 0.28 0.37 0.46 0.52 0.50 0.42 0.31 0.30 0.33 0.41 0.47 0.53 0.46 0.28 0.33 0.39 0.44 0.52 0.52 0.53 0.59 0.60 0.60 0.63 0.67 0.72 0.76 0.79 0.81 0.84
0.22 0.20 0.17 0.15 0.15 0.12 0.11 0.15 0.19 0.27 0.36 0.40 0.36 0.26 0.24 0.25 0.39 0.51 0.55 0.61 0.53 0.39 0.46 0.53 0.50 0.51 0.51 0.54 0.62 0.62 0.58 0.57 0.59 0.63 0.67 0.69 0.69 0.73
0.10 0.08 0.07 0.06 0.06 0.10 0.16 0.20 0.15 0.11 0.12 0.14 0.14 0.15 0.19 0.25 0.41 0.60 0.67 0.68 0.54 0.42 0.42 0.48 0.41 0.39 0.38 0.40 0.47 0.49 0.46 0.47 0.50 0.54 0.57 0.58 0.58 0.60
0.05 0.04 0.05 0.04 0.06 0.18 0.26 0.26 0.14 0.05 0.04 0.08 0.13 0.15 0.17 0.21 0.28 0.49 0.68 0.78 0.64 0.38 0.31 0.38 0.38 0.38 0.36 0.33 0.36 0.42 0.42 0.43 0.44 0.45 0.47 0.49 0.52 0.56
0.04 0.03 0.04 0.05 0.13 0.25 0.26 0.24 0.13 0.06 0.08 0.08 0.06 0.05 0.05 0.06 0.16 0.36 0.75 1.13 0.92 0.58 0.32 0.42 0.47 0.53 0.63 0.36 0.31 0.35 0.35 0.34 0.34 0.35 0.36 0.39 0.43 0.47
0.07 0.03 0.02 0.09 0.19 0.24 0.19 0.09 0.10 0.18 0.15 0.06 0.05 0.04 0.04 0.04 0.08 0.17 0.42 1.04 1.34 0.96 0.48 0.76 0.90 0.64 0.73 0.48 0.31 0.32 0.34 0.39 0.42 0.39 0.38 0.39 0.41 0.48
0.08 0.05 0.06 0.15 0.16 0.11 0.06 0.06 0.13 0.13 0.05 0.05 0.06 0.06 0.08 0.11 0.15 0.21 0.27 0.44 0.78 0.99 0.72 0.93 1.26 0.88 0.91 0.67 0.38 0.34 0.38 0.52 0.67 0.64 0.57 0.55 0.48 0.48
0.09 0.12 0.14 0.11 0.06 0.02 0.03 0.05 0.06 0.05 0.09 0.16 0.15 0.13 0.15 0.22 0.29 0.32 0.32 0.35 0.41 0.49 0.54 0.63 0.93 0.94 1.01 0.91 0.60 0.45 0.53 0.59 0.77 0.95 0.90 0.74 0.56 0.48
0.12 0.12 0.08 0.03 0.02 0.02 0.02 0.02 0.03 0.07 0.19 0.26 0.23 0.17 0.18 0.25 0.31 0.41 0.52 0.54 0.59 0.54 0.50 0.49 0.60 0.84 0.88 0.64 0.70 0.65 0.68 0.91 0.99 1.17 1.14 0.87 0.65 0.52
0.14 0.05 0.01 0.01 0.02 0.02 0.01 0.01 0.03 0.06 0.13 0.18 0.24 0.26 0.25 0.33 0.43 0.55 0.71 0.78 0.82 0.70 0.57 0.43 0.37 0.43 0.55 0.60 0.61 0.54 0.66 0.91 1.11 1.22 1.19 1.01 0.80 0.64
0.08 0.03 0.03 0.03 0.04 0.05 0.05 0.05 0.05 0.08 0.18 0.28 0.32 0.36 0.42 0.50 0.59 0.66 0.79 0.89 0.83 0.66 0.54 0.42 0.35 0.33 0.29 0.28 0.43 0.65 0.75 0.94 1.09 1.09 0.94 0.91 0.90 0.72
0.04 0.05 0.06 0.06 0.06 0.07 0.10 0.13 0.14 0.15 0.27 0.42 0.49 0.53 0.59 0.64 0.71 0.77 0.80 0.77 0.65 0.52 0.42 0.35 0.40 0.62 0.60 0.35 0.27 0.55 0.96 1.05 0.95 0.89 0.76 0.73 0.85 0.73
0.05 0.07 0.07 0.07 0.08 0.12 0.15 0.22 0.26 0.27 0.36 0.48 0.57 0.62 0.69 0.77 0.81 0.79 0.73 0.67 0.58 0.42 0.27 0.18 0.26 0.60 0.97 0.88 0.67 0.61 0.74 0.95 0.97 0.88 0.67 0.58 0.65 0.62
0.06 0.06 0.06 0.08 0.12 0.15 0.19 0.27 0.36 0.46 0.53 0.66 0.69 0.71 0.77 0.88 0.85 0.72 0.59 0.44 0.37 0.30 0.22 0.14 0.17 0.34 0.59 0.70 0.62 0.54 0.65 0.75 0.86 1.03 0.91 0.76 0.60 0.51
0.06 0.07 0.06 0.08 0.14 0.20 0.25 0.33 0.43 0.49 0.58 0.67 0.72 0.73 0.77 0.83 0.77 0.56 0.39 0.31 0.25 0.23 0.20 0.13 0.10 0.14 0.30 0.56 0.54 0.46 0.49 0.49 0.44 0.41 0.60 0.89 1.20 1.26
0.09 0.10 0.10 0.12 0.17 0.24 0.31 0.37 0.47 0.54 0.62 0.73 0.76 0.71 0.68 0.59 0.42 0.33 0.28 0.27 0.27 0.22 0.18 0.14 0.10 0.12 0.21 0.33 0.42 0.41 0.37 0.33 0.27 0.30 0.49 0.55 0.71 0.94